Location: Ergnies
(50.0854°N, 2.0375°E)
Time: 11:08:01
(UTC+00:00)

Cosmos 1953 - Pass Details

Date: 14 January 2026
Orbit: 474 x 489 km, 82.5° (Epoch: 10 February)

Event Time Altitude Azimuth Distance (km) Brightness Sun altitude
Rises 06:36:28 0° 175° (S) 2,532 6.1 -10.7°
Reaches altitude 10° 06:38:36 10° 170° (S) 1,661 5.2 -10.4°
Maximum altitude 06:42:06 48° 95° (E) 641 3.2 -9.9°
Drops below altitude 10° 06:45:40 10° 20° (NNE) 1,686 4.8 -9.3°
Sets 06:47:50 0° 15° (NNE) 2,576 5.7 -9.0°
